Time,TemperatureF,DewpointF,PressureIn,WindDirection,WindDirectionDegrees,WindSpeedMPH,WindSpeedGustMPH,Humidity,HourlyPrecipIn,Conditions,Clouds,dailyrainin,SolarRadiationWatts/m^2,SoftwareType,DateUTC
2013-11-28 00:01:00,28.0,25.0,-100.00,WNW,297,0.0,2.0,88,0.00,,,0.00,0.000000,,2013-11-28 08:01:00,
2013-11-28 00:11:00,28.0,25.0,-100.00,WNW,297,0.0,2.0,88,0.00,,,0.00,0.000000,,2013-11-28 08:11:00,
2013-11-28 00:42:00,26.0,24.0,-100.00,ENE,76,0.0,2.0,92,0.00,,,0.00,0.000000,,2013-11-28 08:42:00,
2013-11-28 00:53:00,26.0,24.0,-100.00,ENE,76,0.0,2.0,92,0.00,,,0.00,0.000000,,2013-11-28 08:53:00,
2013-11-28 01:02:00,26.0,24.0,-100.00,ENE,76,0.0,2.0,92,0.00,,,0.00,0.000000,,2013-11-28 09:02:00,
2013-11-28 01:11:00,26.0,24.0,-100.00,ENE,76,0.0,2.0,92,0.00,,,0.00,0.000000,,2013-11-28 09:11:00,
2013-11-28 01:43:00,27.0,25.0,-100.00,NE,36,2.0,3.0,92,0.00,,,0.00,0.000000,,2013-11-28 09:43:00,
2013-11-28 01:53:00,27.0,25.0,-100.00,NE,36,2.0,3.0,92,0.00,,,0.00,0.000000,,2013-11-28 09:53:00,
2013-11-28 02:02:00,27.0,25.0,-100.00,NE,36,2.0,3.0,92,0.00,,,0.00,0.000000,,2013-11-28 10:02:00,
2013-11-28 02:12:00,27.0,25.0,-100.00,NE,36,2.0,3.0,92,0.00,,,0.00,0.000000,,2013-11-28 10:12:00,
2013-11-28 02:43:00,27.0,25.0,-100.00,NW,320,0.0,1.0,92,0.00,,,0.00,0.000000,,2013-11-28 10:43:00,
2013-11-28 02:52:00,27.0,25.0,-100.00,NW,320,0.0,1.0,92,0.00,,,0.00,0.000000,,2013-11-28 10:52:00,
2013-11-28 03:02:00,27.0,25.0,-100.00,NW,320,0.0,1.0,92,0.00,,,0.00,0.000000,,2013-11-28 11:02:00,
2013-11-28 03:11:00,27.0,25.0,-100.00,NW,320,0.0,1.0,92,0.00,,,0.00,0.000000,,2013-11-28 11:11:00,
2013-11-28 03:42:00,27.0,25.0,-100.00,WNW,299,1.0,2.0,92,0.00,,,0.00,0.000000,,2013-11-28 11:42:00,
2013-11-28 03:52:00,27.0,25.0,-100.00,WNW,299,1.0,2.0,92,0.00,,,0.00,0.000000,,2013-11-28 11:52:00,
2013-11-28 04:02:00,27.0,25.0,-100.00,WNW,299,1.0,2.0,92,0.00,,,0.00,0.000000,,2013-11-28 12:02:00,
2013-11-28 04:12:00,27.0,25.0,-100.00,WNW,299,1.0,2.0,92,0.00,,,0.00,0.000000,,2013-11-28 12:12:00,
2013-11-28 04:42:00,27.0,25.0,-100.00,NW,304,1.0,2.0,91,0.00,,,0.00,0.000000,,2013-11-28 12:42:00,
2013-11-28 04:52:00,27.0,25.0,-100.00,NW,304,1.0,2.0,91,0.00,,,0.00,0.000000,,2013-11-28 12:52:00,
2013-11-28 05:01:00,27.0,25.0,-100.00,NW,304,1.0,2.0,91,0.00,,,0.00,0.000000,,2013-11-28 13:01:00,
2013-11-28 05:11:00,27.0,25.0,-100.00,NW,304,1.0,2.0,91,0.00,,,0.00,0.000000,,2013-11-28 13:11:00,
2013-11-28 05:42:00,26.0,24.0,-100.00,North,357,0.0,2.0,92,0.00,,,0.00,0.000000,,2013-11-28 13:42:00,
2013-11-28 05:52:00,26.0,24.0,-100.00,North,357,0.0,2.0,92,0.00,,,0.00,0.000000,,2013-11-28 13:52:00,
2013-11-28 06:02:00,26.0,24.0,-100.00,North,357,0.0,2.0,92,0.00,,,0.00,0.000000,,2013-11-28 14:02:00,
2013-11-28 06:11:00,26.0,24.0,-100.00,North,357,0.0,2.0,92,0.00,,,0.00,0.000000,,2013-11-28 14:11:00,
2013-11-28 06:42:00,27.0,25.0,-100.00,West,265,0.0,1.0,91,0.00,,,-99.99,0.000000,,2013-11-28 14:42:00,
2013-11-28 06:52:00,27.0,25.0,-100.00,West,265,0.0,1.0,91,0.00,,,-99.99,0.000000,,2013-11-28 14:52:00,
2013-11-28 07:02:00,27.0,25.0,-100.00,West,265,0.0,1.0,91,0.00,,,-99.99,0.000000,,2013-11-28 15:02:00,
2013-11-28 07:12:00,27.0,25.0,-100.00,West,265,0.0,1.0,91,0.00,,,-99.99,0.000000,,2013-11-28 15:12:00,
2013-11-28 07:44:00,27.0,24.0,-100.00,West,261,2.0,4.0,90,0.00,,,0.00,0.000000,,2013-11-28 15:44:00,
2013-11-28 07:54:00,27.0,24.0,-100.00,West,261,2.0,4.0,90,0.00,,,0.00,0.000000,,2013-11-28 15:54:00,
2013-11-28 08:03:00,27.0,24.0,-100.00,West,261,2.0,4.0,90,0.00,,,0.00,0.000000,,2013-11-28 16:03:00,
2013-11-28 08:13:00,27.0,24.0,-100.00,West,261,2.0,4.0,90,0.00,,,0.00,0.000000,,2013-11-28 16:13:00,
2013-11-28 08:43:00,29.0,25.0,-100.00,NNW,347,1.0,3.0,85,0.00,,,0.00,34.000000,,2013-11-28 16:43:00,
2013-11-28 08:53:00,29.0,25.0,-100.00,NNW,347,1.0,3.0,85,0.00,,,0.00,34.000000,,2013-11-28 16:53:00,
2013-11-28 09:02:00,29.0,25.0,-100.00,NNW,347,1.0,3.0,85,0.00,,,0.00,34.000000,,2013-11-28 17:02:00,
2013-11-28 09:12:00,29.0,25.0,-100.00,NNW,347,1.0,3.0,85,0.00,,,0.00,34.000000,,2013-11-28 17:12:00,
2013-11-28 09:42:00,34.0,28.0,-100.00,ENE,69,2.0,4.0,77,0.00,,,0.00,149.000000,,2013-11-28 17:42:00,
2013-11-28 09:52:00,34.0,28.0,-100.00,ENE,69,2.0,4.0,77,0.00,,,0.00,149.000000,,2013-11-28 17:52:00,
2013-11-28 10:02:00,34.0,28.0,-100.00,ENE,69,2.0,4.0,77,0.00,,,0.00,149.000000,,2013-11-28 18:02:00,
2013-11-28 10:11:00,34.0,28.0,-100.00,ENE,69,2.0,4.0,77,0.00,,,0.00,149.000000,,2013-11-28 18:11:00,
2013-11-28 10:42:00,35.0,27.0,-100.00,SSE,165,2.0,6.0,72,0.00,,,0.00,292.000000,,2013-11-28 18:42:00,
2013-11-28 10:52:00,35.0,27.0,-100.00,SSE,165,2.0,6.0,72,0.00,,,0.00,292.000000,,2013-11-28 18:52:00,
2013-11-28 11:02:00,35.0,27.0,-100.00,SSE,165,2.0,6.0,72,0.00,,,0.00,292.000000,,2013-11-28 19:02:00,
2013-11-28 11:11:00,35.0,27.0,-100.00,SSE,165,2.0,6.0,72,0.00,,,0.00,292.000000,,2013-11-28 19:11:00,
2013-11-28 11:42:00,37.0,27.0,-100.00,East,90,3.0,5.0,67,0.00,,,0.00,308.000000,,2013-11-28 19:42:00,
2013-11-28 11:52:00,37.0,27.0,-100.00,East,90,3.0,5.0,67,0.00,,,0.00,308.000000,,2013-11-28 19:52:00,
2013-11-28 12:01:00,37.0,27.0,-100.00,East,90,3.0,5.0,67,0.00,,,0.00,308.000000,,2013-11-28 20:01:00,
2013-11-28 12:11:00,37.0,27.0,-100.00,East,90,3.0,5.0,67,0.00,,,0.00,308.000000,,2013-11-28 20:11:00,
2013-11-28 12:42:00,38.0,27.0,-100.00,East,84,3.0,6.0,63,0.00,,,0.00,365.000000,,2013-11-28 20:42:00,
2013-11-28 12:52:00,38.0,27.0,-100.00,East,84,3.0,6.0,63,0.00,,,0.00,365.000000,,2013-11-28 20:52:00,
2013-11-28 13:02:00,38.0,27.0,-100.00,East,84,3.0,6.0,63,0.00,,,0.00,365.000000,,2013-11-28 21:02:00,
2013-11-28 13:11:00,38.0,27.0,-100.00,East,84,3.0,6.0,63,0.00,,,0.00,365.000000,,2013-11-28 21:11:00,
2013-11-28 13:43:00,39.0,28.0,-100.00,SSW,207,2.0,5.0,64,0.00,,,0.00,291.000000,,2013-11-28 21:43:00,
2013-11-28 13:53:00,39.0,28.0,-100.00,SSW,207,2.0,5.0,64,0.00,,,0.00,291.000000,,2013-11-28 21:53:00,
2013-11-28 14:03:00,39.0,28.0,-100.00,SSW,207,2.0,5.0,64,0.00,,,0.00,291.000000,,2013-11-28 22:03:00,
2013-11-28 14:13:00,39.0,28.0,-100.00,SSW,207,2.0,5.0,64,0.00,,,0.00,291.000000,,2013-11-28 22:13:00,
2013-11-28 14:42:00,39.0,28.0,-100.00,East,87,2.0,4.0,64,0.00,,,0.00,214.000000,,2013-11-28 22:42:00,
2013-11-28 14:53:00,39.0,28.0,-100.00,East,87,2.0,4.0,64,0.00,,,0.00,214.000000,,2013-11-28 22:53:00,
2013-11-28 15:02:00,39.0,28.0,-100.00,East,87,2.0,4.0,64,0.00,,,0.00,214.000000,,2013-11-28 23:02:00,
2013-11-28 15:12:00,39.0,28.0,-100.00,East,87,2.0,4.0,64,0.00,,,0.00,214.000000,,2013-11-28 23:12:00,
2013-11-28 15:42:00,38.0,28.0,-100.00,WNW,287,2.0,4.0,67,0.00,,,0.00,90.000000,,2013-11-28 23:42:00,
2013-11-28 15:52:00,38.0,28.0,-100.00,WNW,287,2.0,4.0,67,0.00,,,0.00,90.000000,,2013-11-28 23:52:00,
2013-11-28 16:02:00,38.0,28.0,-100.00,WNW,287,2.0,4.0,67,0.00,,,0.00,90.000000,,2013-11-29 00:02:00,
2013-11-28 16:11:00,38.0,28.0,-100.00,WNW,287,2.0,4.0,67,0.00,,,0.00,90.000000,,2013-11-29 00:11:00,
2013-11-28 16:42:00,35.0,27.0,-100.00,SSW,193,1.0,3.0,71,0.00,,,0.00,20.000000,,2013-11-29 00:42:00,
2013-11-28 16:52:00,35.0,27.0,-100.00,SSW,193,1.0,3.0,71,0.00,,,0.00,20.000000,,2013-11-29 00:52:00,
2013-11-28 17:01:00,35.0,27.0,-100.00,SSW,193,1.0,3.0,71,0.00,,,0.00,20.000000,,2013-11-29 01:01:00,
2013-11-28 17:11:00,35.0,27.0,-100.00,SSW,193,1.0,3.0,71,0.00,,,0.00,20.000000,,2013-11-29 01:11:00,
2013-11-28 17:42:00,35.0,28.0,-100.00,North,10,1.0,4.0,74,0.00,,,0.00,2.000000,,2013-11-29 01:42:00,
2013-11-28 17:52:00,35.0,28.0,-100.00,North,10,1.0,4.0,74,0.00,,,0.00,2.000000,,2013-11-29 01:52:00,
2013-11-28 18:02:00,35.0,28.0,-100.00,North,10,1.0,4.0,74,0.00,,,0.00,2.000000,,2013-11-29 02:02:00,
2013-11-28 18:12:00,35.0,28.0,-100.00,North,10,1.0,4.0,74,0.00,,,0.00,2.000000,,2013-11-29 02:12:00,
2013-11-28 18:42:00,34.0,26.0,-100.00,SSW,192,2.0,4.0,72,0.00,,,0.00,0.000000,,2013-11-29 02:42:00,
2013-11-28 18:52:00,34.0,26.0,-100.00,SSW,192,2.0,4.0,72,0.00,,,0.00,0.000000,,2013-11-29 02:52:00,
2013-11-28 19:01:00,34.0,26.0,-100.00,SSW,192,2.0,4.0,72,0.00,,,0.00,0.000000,,2013-11-29 03:01:00,
2013-11-28 19:11:00,34.0,26.0,-100.00,SSW,192,2.0,4.0,72,0.00,,,0.00,0.000000,,2013-11-29 03:11:00,
2013-11-28 19:43:00,34.0,27.0,-100.00,ENE,61,0.0,5.0,74,0.00,,,0.00,0.000000,,2013-11-29 03:43:00,
2013-11-28 19:53:00,34.0,27.0,-100.00,ENE,61,0.0,5.0,74,0.00,,,0.00,0.000000,,2013-11-29 03:53:00,
2013-11-28 20:03:00,34.0,27.0,-100.00,ENE,61,0.0,5.0,74,0.00,,,0.00,0.000000,,2013-11-29 04:03:00,
2013-11-28 20:13:00,34.0,27.0,-100.00,ENE,61,0.0,5.0,74,0.00,,,0.00,0.000000,,2013-11-29 04:13:00,
2013-11-28 20:43:00,33.0,26.0,-100.00,NNE,14,0.0,3.0,76,0.00,,,0.00,0.000000,,2013-11-29 04:43:00,
2013-11-28 20:52:00,33.0,26.0,-100.00,NNE,14,0.0,3.0,76,0.00,,,0.00,0.000000,,2013-11-29 04:52:00,
2013-11-28 21:02:00,33.0,26.0,-100.00,NNE,14,0.0,3.0,76,0.00,,,0.00,0.000000,,2013-11-29 05:02:00,
2013-11-28 21:12:00,33.0,26.0,-100.00,NNE,14,0.0,3.0,76,0.00,,,0.00,0.000000,,2013-11-29 05:12:00,
2013-11-28 21:43:00,33.0,27.0,-100.00,NE,53,0.0,0.0,79,0.00,,,0.00,0.000000,,2013-11-29 05:43:00,
2013-11-28 21:53:00,33.0,27.0,-100.00,NE,53,0.0,0.0,79,0.00,,,0.00,0.000000,,2013-11-29 05:53:00,
2013-11-28 22:02:00,33.0,27.0,-100.00,NE,53,0.0,0.0,79,0.00,,,0.00,0.000000,,2013-11-29 06:02:00,
2013-11-28 22:12:00,33.0,27.0,-100.00,NE,53,0.0,0.0,79,0.00,,,0.00,0.000000,,2013-11-29 06:12:00,
2013-11-28 22:42:00,33.0,27.0,-100.00,NE,40,0.0,1.0,78,0.00,,,0.00,0.000000,,2013-11-29 06:42:00,
2013-11-28 22:52:00,33.0,27.0,-100.00,NE,40,0.0,1.0,78,0.00,,,0.00,0.000000,,2013-11-29 06:52:00,
2013-11-28 23:01:00,33.0,27.0,-100.00,NE,40,0.0,1.0,78,0.00,,,0.00,0.000000,,2013-11-29 07:01:00,
2013-11-28 23:11:00,33.0,27.0,-100.00,NE,40,0.0,1.0,78,0.00,,,0.00,0.000000,,2013-11-29 07:11:00,
2013-11-28 23:42:00,33.0,28.0,-100.00,SW,214,3.0,4.0,80,0.00,,,0.00,0.000000,,2013-11-29 07:42:00,
2013-11-28 23:52:00,33.0,28.0,-100.00,SW,214,3.0,4.0,80,0.00,,,0.00,0.000000,,2013-11-29 07:52:00,